Home > Time Zones > World Clock > Weather > Chile > Arica > Past weeks

Flag for Chile Weather past 2 weeks in Arica, Chile

Now
77 °F

Sunny.


Feels Like: 79 °F
Forecast: 70 / 78 °F
Wind: 14 mph from Southwest

Location: Arica Airport

Current Time: Mar 2, 2015 at 1:48:40 PM

Latest Report: Mar 2, 2015 at 1:00 PM


Visibility: 10 mi

Pressure: 29.89 "Hg

Humidity: 54%

Dew point: 59 °F

Location of AricaLocation

Historic Weather in Arica — Graph

°F

Arica temperature yesterday

Maximum temperature yesterday: 79 °F (at 3:00 PM)
Minimum temperature yesterday: 68 °F (at 8:00 AM)
Average temperature yesterday: 73 °F

Past Weeks' High & Low Weather Summary

 TemperatureHumidityPressure
High81 °F (Feb 15, 2:00 PM)88% (Feb 25, 8:00 AM)30.33 "Hg (Feb 25, 8:00 AM)
Low39 °F (Feb 20, 8:00 AM)21% (Feb 25, 4:05 PM)29.80 "Hg (Feb 24, 4:00 PM)
Average74 °F63%29.90 "Hg
* Reported Feb 15 12:00 Noon — Mar 2 12:00 Noon, Arica, Weather by CustomWeather, © 2015

Note: Actual official high and low records may vary slightly from our data, if they occured in-between our weather recording intervals... More about our weather records

Advertising

Arica weather history for previous 24 hours

 ConditionsComfort  
Time TempWeatherWind HumidityBarometerVisibility
12:00 PM
Mon, Mar 2
77 °FSunny.9 mph54%29.89 "Hg10 mi
11:00 AM79 °FSunny.2 mph51%29.92 "Hg10 mi
10:00 AM73 °FSunny.5 mph65%29.89 "Hg10 mi
9:00 AM72 °FSunny.3 mph61%29.89 "Hg10 mi
8:00 AM68 °FClear.3 mph64%29.89 "Hg10 mi
7:00 AM68 °FClear.3 mph73%29.89 "Hg10 mi
6:00 AM68 °FClear.2 mph64%29.86 "Hg10 mi
5:00 AM70 °FClear.7 mph64%29.89 "Hg10 mi
4:00 AM70 °FClear.5 mph64%29.89 "Hg10 mi
3:00 AM70 °FClear.3 mph69%29.92 "Hg10 mi
2:00 AM70 °FClear.2 mph69%29.95 "Hg10 mi
1:00 AM72 °FClear.1 mph73%29.95 "Hg10 mi
12:00 AM72 °FClear.No wind73%29.98 "Hg10 mi
11:00 PM
Sun, Mar 1
72 °FClear.2 mph69%29.95 "Hg10 mi
10:00 PM72 °FClear.No wind69%29.95 "Hg10 mi
9:00 PM72 °FSunny.3 mph69%29.92 "Hg10 mi
8:00 PM72 °FSunny.5 mph69%29.89 "Hg10 mi
7:00 PM73 °FSunny.10 mph65%29.86 "Hg10 mi
6:00 PM73 °FSunny.9 mph65%29.86 "Hg10 mi
5:00 PM75 °FSunny.13 mph61%29.86 "Hg10 mi
4:00 PM75 °FSunny.17 mph61%29.86 "Hg10 mi
3:00 PM79 °FSunny.18 mph51%29.89 "Hg10 mi
2:00 PM77 °FSunny.14 mph51%29.89 "Hg10 mi
1:00 PM77 °FSunny.14 mph51%29.92 "Hg10 mi
Weather by CustomWeather, © 2015

See weather overviewHow to use our weather pages